Tracking 19706 objects as of 16-Jun-2019
HD Live streaming from Space Station
objects crossing your sky now

COSMOS 1694

Track COSMOS 1694 now!
10-day predictions
COSMOS 1694 is classified as:


NORAD ID: 16142
Int'l Code: 1985-094E
Perigee: 1,405.3 km
Apogee: 1,424.6 km
Inclination: 82.6 °
Period: 114.0 minutes
Semi major axis: 7785 km
RCS: 0.2341 m2 (medium)
Launch date: October 9, 1985
Source: Commonwealth of Independent States (former USSR) (CIS)
Launch site: PLESETSK MISSILE AND SPACE COMPLEX (PKMTR)
aabbcc
Your satellite tracking list
Your tracking list is empty




NASA's NSSDC Master Catalog

Two Line Element Set (TLE):
1 16142U 85094E   19167.21000917 -.00000001  00000-0 -62732-4 0  9991
2 16142  82.6099  91.8812 0012441 119.9443  42.2188 12.63677110553824
Source of the keplerian elements: AFSPC